Radiation Dose at Monitoring Post of Fukushima Daini Nuclear Power Station
Date,Time,MP-1(microSv/h),MP-2(microSv/h),MP-3(microSv/h),MP-4(microSv/h),MP-5(microSv/h),MP-6(microSv/h),MP-7(microSv/h),Wind Direction,Wind Velocity(m/s),Rain
2024/05/13,00:00,0.147,0.129,0.209,0.196,0.205,0.116,0.076,south,6.3,No
2024/05/13,00:10,0.147,0.130,0.210,0.193,0.205,0.116,0.076,south,7.9,No
2024/05/13,00:20,0.146,0.129,0.210,0.195,0.206,0.116,0.075,south,8.4,No
2024/05/13,00:30,0.147,0.130,0.209,0.195,0.204,0.115,0.076,south,6.4,No
2024/05/13,00:40,0.145,0.128,0.210,0.195,0.207,0.117,0.075,south,7.5,No
2024/05/13,00:50,0.147,0.130,0.209,0.195,0.204,0.116,0.075,south,8.8,No
2024/05/13,01:00,0.146,0.129,0.210,0.194,0.207,0.116,0.074,south,8.7,No
2024/05/13,01:10,0.146,0.130,0.210,0.196,0.205,0.115,0.075,south,8.3,No
2024/05/13,01:20,0.146,0.129,0.210,0.195,0.205,0.116,0.074,south,7.5,No
2024/05/13,01:30,0.147,0.129,0.210,0.196,0.205,0.116,0.076,south,7.8,No
2024/05/13,01:40,0.147,0.129,0.210,0.194,0.205,0.115,0.075,south,8.6,No
2024/05/13,01:50,0.146,0.130,0.210,0.195,0.206,0.116,0.076,south,8.7,No
2024/05/13,02:00,0.147,0.129,0.210,0.195,0.205,0.114,0.075,south,8.3,No
2024/05/13,02:10,0.146,0.130,0.208,0.196,0.206,0.116,0.075,south,6.8,No
2024/05/13,02:20,0.147,0.129,0.209,0.196,0.204,0.116,0.075,south,5.5,No
2024/05/13,02:30,0.145,0.129,0.209,0.196,0.206,0.115,0.075,south,8.1,No
2024/05/13,02:40,0.148,0.129,0.211,0.195,0.205,0.116,0.075,south,7.1,No
2024/05/13,02:50,0.145,0.129,0.209,0.195,0.207,0.116,0.075,south,8.8,No
2024/05/13,03:00,0.147,0.129,0.211,0.195,0.205,0.116,0.075,south,8.5,No
2024/05/13,03:10,0.146,0.128,0.208,0.196,0.205,0.114,0.075,south,8.1,No
2024/05/13,03:20,0.146,0.130,0.210,0.194,0.204,0.116,0.075,south-southwest,7.9,No
2024/05/13,03:30,0.147,0.130,0.209,0.195,0.205,0.116,0.075,south,7.1,No
2024/05/13,03:40,0.146,0.129,0.211,0.196,0.207,0.116,0.075,south,7.5,Yes
2024/05/13,03:50,0.146,0.129,0.210,0.194,0.204,0.116,0.075,south-southwest,6.2,Yes
2024/05/13,04:00,0.146,0.130,0.211,0.197,0.206,0.116,0.075,south,7.3,Yes
2024/05/13,04:10,0.147,0.129,0.210,0.194,0.203,0.117,0.076,south-southwest,6.9,Yes
2024/05/13,04:20,0.146,0.131,0.212,0.198,0.208,0.116,0.075,south,6.8,Yes
2024/05/13,04:30,0.148,0.130,0.210,0.196,0.206,0.117,0.075,south,6.1,Yes
2024/05/13,04:40,0.147,0.131,0.211,0.198,0.206,0.118,0.077,south,5.6,Yes
2024/05/13,04:50,0.148,0.131,0.211,0.196,0.206,0.118,0.076,south,5.6,Yes
2024/05/13,05:00,0.147,0.131,0.212,0.198,0.207,0.118,0.077,south,5.2,Yes
2024/05/13,05:10,0.148,0.131,0.210,0.197,0.207,0.118,0.078,south,6.1,Yes
2024/05/13,05:20,0.148,0.132,0.211,0.197,0.205,0.118,0.077,south,5.9,Yes
2024/05/13,05:30,0.149,0.130,0.210,0.196,0.206,0.118,0.076,south,5.2,Yes
2024/05/13,05:40,0.147,0.131,0.211,0.196,0.205,0.118,0.077,south,4.9,Yes
2024/05/13,05:50,0.148,0.130,0.209,0.195,0.206,0.117,0.077,south,6.0,Yes
2024/05/13,06:00,0.148,0.130,0.209,0.195,0.203,0.118,0.077,south-southeast,6.3,Yes
2024/05/13,06:10,0.147,0.129,0.206,0.192,0.204,0.117,0.077,south,7.9,Yes
2024/05/13,06:20,0.147,0.131,0.208,0.194,0.203,0.118,0.078,south-southeast,8.3,Yes
2024/05/13,06:30,0.146,0.130,0.206,0.192,0.205,0.117,0.077,south-southeast,10.7,Yes
2024/05/13,06:40,0.147,0.129,0.206,0.193,0.202,0.117,0.078,south-southeast,11.5,Yes
2024/05/13,06:50,0.145,0.129,0.205,0.190,0.204,0.116,0.077,south,13.1,Yes
2024/05/13,07:00,0.146,0.130,0.205,0.191,0.202,0.116,0.078,south,12.2,Yes
2024/05/13,07:10,0.145,0.128,0.203,0.191,0.203,0.116,0.077,south,10.9,Yes
2024/05/13,07:20,0.147,0.130,0.205,0.191,0.203,0.117,0.078,south,10.9,Yes
2024/05/13,07:30,0.144,0.128,0.204,0.190,0.202,0.116,0.077,south,9.3,Yes
2024/05/13,07:40,0.147,0.129,0.204,0.190,0.201,0.116,0.078,south-southeast,9.8,Yes
2024/05/13,07:50,0.145,0.128,0.202,0.189,0.202,0.116,0.078,south-southeast,8.8,Yes
2024/05/13,08:00,0.147,0.131,0.201,0.189,0.203,0.115,0.079,south-southeast,8.9,Yes
2024/05/13,08:10,0.145,0.129,0.201,0.188,0.202,0.116,0.079,south-southeast,9.5,Yes
2024/05/13,08:20,0.145,0.129,0.200,0.188,0.202,0.115,0.079,south,11.4,Yes
2024/05/13,08:30,0.143,0.128,0.197,0.186,0.200,0.117,0.080,south,9.2,Yes
2024/05/13,08:40,0.144,0.130,0.199,0.187,0.202,0.116,0.080,south-southeast,9.2,Yes
2024/05/13,08:50,0.143,0.129,0.199,0.188,0.202,0.116,0.080,south-southeast,12.2,Yes
2024/05/13,09:00,0.143,0.130,0.199,0.187,0.204,0.115,0.080,south-southeast,10.7,Yes
2024/05/13,09:10,0.143,0.128,0.199,0.187,0.201,0.116,0.081,-,CALM,Yes
2024/05/13,09:20,0.141,0.130,0.199,0.186,0.202,0.116,0.081,south,10.3,Yes
2024/05/13,09:30,0.140,0.129,0.196,0.186,0.201,0.115,0.080,south,9.5,Yes
2024/05/13,09:40,0.139,0.129,0.198,0.185,0.201,0.116,0.080,south,12.6,Yes
2024/05/13,09:50,0.141,0.129,0.198,0.189,0.202,0.115,0.079,south,10.6,Yes
2024/05/13,10:00,0.140,0.130,0.202,0.187,0.203,0.115,0.079,south,8.3,Yes
2024/05/13,10:10,0.142,0.128,0.199,0.189,0.202,0.114,0.079,south,7.6,Yes
2024/05/13,10:20,0.141,0.128,0.202,0.187,0.203,0.114,0.078,south,5.6,Yes
2024/05/13,10:30,0.141,0.127,0.199,0.188,0.204,0.114,0.078,south,5.9,Yes
2024/05/13,10:40,0.142,0.127,0.202,0.188,0.202,0.114,0.078,south,7.6,Yes
2024/05/13,10:50,0.142,0.128,0.200,0.188,0.203,0.115,0.077,south,6.9,Yes
2024/05/13,11:00,0.143,0.129,0.202,0.190,0.204,0.114,0.079,south,6.7,Yes
2024/05/13,11:10,0.143,0.128,0.203,0.189,0.201,0.115,0.078,south,6.0,Yes
2024/05/13,11:20,0.143,0.129,0.202,0.191,0.205,0.115,0.079,south,6.4,Yes
2024/05/13,11:30,0.144,0.129,0.203,0.189,0.201,0.115,0.079,south,5.5,Yes
2024/05/13,11:40,0.143,0.128,0.201,0.190,0.203,0.115,0.079,south-southwest,2.6,Yes
2024/05/13,11:50,0.143,0.129,0.202,0.188,0.202,0.115,0.080,west-northwest,5.3,Yes
2024/05/13,12:00,0.141,0.129,0.201,0.187,0.203,0.116,0.080,northwest,3.7,Yes
2024/05/13,12:10,0.143,0.130,0.202,0.190,0.203,0.116,0.080,north-northwest,3.3,Yes
2024/05/13,12:20,0.144,0.131,0.202,0.187,0.204,0.117,0.081,north,5.2,Yes
2024/05/13,12:30,0.143,0.130,0.202,0.190,0.205,0.117,0.081,north,3.3,Yes
2024/05/13,12:40,0.144,0.131,0.203,0.189,0.205,0.117,0.081,north,2.3,Yes
2024/05/13,12:50,0.145,0.130,0.204,0.190,0.205,0.117,0.082,north,2.2,Yes
2024/05/13,13:00,0.144,0.130,0.204,0.189,0.205,0.117,0.082,northeast,1.5,Yes
2024/05/13,13:10,0.144,0.131,0.203,0.191,0.206,0.118,0.083,north-northeast,1.6,Yes
2024/05/13,13:20,0.145,0.132,0.204,0.190,0.205,0.118,0.082,north,0.8,Yes
2024/05/13,13:30,0.145,0.131,0.204,0.191,0.206,0.118,0.083,northeast,1.7,Yes
2024/05/13,13:40,0.147,0.132,0.204,0.191,0.206,0.118,0.083,northeast,2.0,Yes
2024/05/13,13:50,0.145,0.131,0.205,0.192,0.206,0.118,0.083,northeast,2.0,Yes
2024/05/13,14:00,0.145,0.132,0.205,0.192,0.207,0.118,0.083,east-northeast,2.2,Yes
2024/05/13,14:10,0.145,0.132,0.205,0.191,0.205,0.118,0.083,-,CALM,Yes
2024/05/13,14:20,0.145,0.132,0.203,0.192,0.207,0.118,0.083,-,CALM,Yes
2024/05/13,14:30,0.145,0.131,0.204,0.191,0.204,0.118,0.083,-,CALM,Yes
2024/05/13,14:40,0.144,0.131,0.203,0.192,0.207,0.118,0.082,northeast,4.2,Yes
2024/05/13,14:50,0.144,0.131,0.203,0.189,0.204,0.118,0.083,east-northeast,3.1,Yes
2024/05/13,15:00,0.145,0.130,0.202,0.191,0.205,0.117,0.081,southeast,2.8,Yes
2024/05/13,15:10,0.143,0.131,0.203,0.189,0.205,0.117,0.082,north-northeast,5.0,Yes
2024/05/13,15:20,0.144,0.130,0.202,0.190,0.207,0.118,0.082,east-southeast,0.8,Yes
2024/05/13,15:30,0.144,0.131,0.204,0.189,0.205,0.117,0.082,east-northeast,7.6,Yes
2024/05/13,15:40,0.144,0.131,0.202,0.191,0.206,0.118,0.083,northeast,2.9,Yes
2024/05/13,15:50,0.144,0.131,0.204,0.189,0.205,0.117,0.083,-,CALM,Yes
2024/05/13,16:00,0.145,0.131,0.201,0.190,0.205,0.117,0.082,west-northwest,1.0,Yes
2024/05/13,16:10,0.144,0.131,0.204,0.190,0.204,0.118,0.082,west-northwest,3.3,Yes
2024/05/13,16:20,0.144,0.130,0.202,0.190,0.205,0.116,0.081,west-northwest,3.1,Yes
2024/05/13,16:30,0.143,0.130,0.204,0.189,0.204,0.117,0.081,west-northwest,2.3,Yes
2024/05/13,16:40,0.144,0.128,0.202,0.190,0.205,0.116,0.080,northwest,3.0,Yes
2024/05/13,16:50,0.144,0.129,0.203,0.189,0.205,0.116,0.080,west-northwest,3.4,Yes
2024/05/13,17:00,0.143,0.129,0.202,0.191,0.205,0.115,0.080,north-northwest,2.6,Yes
2024/05/13,17:10,0.144,0.130,0.203,0.188,0.205,0.115,0.081,northwest,3.9,Yes
2024/05/13,17:20,0.144,0.129,0.202,0.191,0.205,0.116,0.079,northwest,4.3,Yes
2024/05/13,17:30,0.145,0.129,0.203,0.190,0.204,0.116,0.080,northwest,3.1,Yes
2024/05/13,17:40,0.145,0.130,0.203,0.190,0.206,0.116,0.080,northwest,3.4,Yes
2024/05/13,17:50,0.145,0.130,0.203,0.191,0.206,0.117,0.081,northwest,4.1,Yes
2024/05/13,18:00,0.145,0.130,0.204,0.191,0.206,0.116,0.081,northwest,4.2,Yes
2024/05/13,18:10,0.144,0.130,0.204,0.190,0.205,0.116,0.082,northwest,4.3,Yes
2024/05/13,18:20,0.146,0.130,0.204,0.190,0.205,0.117,0.080,northwest,3.8,Yes
2024/05/13,18:30,0.145,0.130,0.202,0.191,0.205,0.118,0.081,north-northwest,3.2,Yes
2024/05/13,18:40,0.147,0.131,0.204,0.191,0.207,0.117,0.082,north-northwest,2.3,Yes
2024/05/13,18:50,0.147,0.132,0.204,0.193,0.205,0.120,0.082,north-northeast,3.6,Yes
2024/05/13,19:00,0.148,0.132,0.205,0.192,0.208,0.118,0.084,north-northwest,2.9,Yes
2024/05/13,19:10,0.147,0.132,0.206,0.193,0.207,0.120,0.084,northwest,2.6,Yes
2024/05/13,19:20,0.149,0.133,0.205,0.192,0.209,0.120,0.084,east,1.1,Yes
2024/05/13,19:30,0.147,0.134,0.206,0.193,0.207,0.120,0.084,north-northeast,3.5,Yes
2024/05/13,19:40,0.148,0.134,0.205,0.192,0.207,0.120,0.085,north,3.0,Yes
2024/05/13,19:50,0.148,0.133,0.205,0.193,0.208,0.120,0.085,north,3.4,Yes
2024/05/13,20:00,0.146,0.133,0.205,0.194,0.207,0.120,0.085,north-northwest,2.6,Yes
2024/05/13,20:10,0.149,0.133,0.204,0.191,0.209,0.120,0.085,north-northwest,2.5,Yes
2024/05/13,20:20,0.147,0.134,0.206,0.194,0.207,0.119,0.084,north-northwest,3.1,Yes
2024/05/13,20:30,0.148,0.134,0.205,0.192,0.209,0.119,0.084,north,4.8,Yes
2024/05/13,20:40,0.148,0.133,0.205,0.193,0.209,0.120,0.084,north,5.1,Yes
2024/05/13,20:50,0.147,0.133,0.206,0.193,0.209,0.119,0.084,north-northwest,4.4,Yes
2024/05/13,21:00,0.147,0.132,0.204,0.191,0.208,0.119,0.083,north,4.6,Yes
2024/05/13,21:10,0.146,0.132,0.205,0.192,0.208,0.119,0.083,north-northwest,4.3,Yes
2024/05/13,21:20,0.146,0.131,0.204,0.192,0.207,0.117,0.082,north-northwest,5.1,Yes
2024/05/13,21:30,0.145,0.132,0.202,0.191,0.206,0.117,0.082,north-northwest,5.1,Yes
2024/05/13,21:40,0.146,0.131,0.203,0.191,0.208,0.118,0.081,north-northwest,5.5,Yes
2024/05/13,21:50,0.147,0.132,0.204,0.192,0.207,0.120,0.083,north,5.8,Yes
2024/05/13,22:00,0.146,0.132,0.204,0.194,0.208,0.119,0.083,north,5.3,Yes
2024/05/13,22:10,0.147,0.132,0.206,0.192,0.206,0.119,0.082,north-northwest,4.9,Yes
2024/05/13,22:20,0.145,0.130,0.203,0.192,0.207,0.117,0.081,north-northwest,4.9,Yes
2024/05/13,22:30,0.145,0.130,0.201,0.191,0.207,0.116,0.081,north-northwest,4.5,Yes
2024/05/13,22:40,0.144,0.128,0.201,0.189,0.204,0.115,0.079,north,4.2,No
2024/05/13,22:50,0.143,0.127,0.200,0.189,0.204,0.113,0.078,north,5.2,No
2024/05/13,23:00,0.141,0.126,0.199,0.187,0.203,0.112,0.077,north-northwest,5.6,No
2024/05/13,23:10,0.140,0.125,0.199,0.186,0.201,0.112,0.076,north-northwest,5.6,No
2024/05/13,23:20,0.140,0.124,0.198,0.187,0.202,0.111,0.076,north-northwest,5.2,No
2024/05/13,23:30,0.139,0.123,0.198,0.184,0.201,0.110,0.075,north-northwest,4.3,No
2024/05/13,23:40,0.139,0.124,0.197,0.185,0.201,0.111,0.075,north-northwest,3.1,No
2024/05/13,23:50,0.140,0.123,0.197,0.184,0.200,0.110,0.074,north-northwest,2.0,No
